{"data":{"norad_id":60054,"intl_designator":"2024-112S","name":"STARLINK-31735","alt_names":[],"object_type":"PAYLOAD","status":"ACTIVE","operator":null,"country":"US","launch_date":"2024-06-08","launch_site_code":"AFWTR","launch_vehicle":null,"mission":null,"orbit_class":"UNKNOWN","rcs_meters":null,"size_class":null,"mass_kg":null,"dimensions":null,"purposes":["comms"],"wikipedia_slug":null,"has_3d_model":false,"image_url":null,"decayed_at":null,"tle_current":{"epoch":"2026-05-25T02:30:13.742208Z","epoch_age_seconds":63143,"freshness":"FRESH","line1":"1 60054U 24112S   26145.10432572  .00000608  00000+0  32647-4 0  9996","line2":"2 60054  53.1601  83.2221 0001247  78.3983 281.7157 15.30195632110292","mean_motion":15.30195632,"eccentricity":0.0001247,"inclination_deg":53.1601,"raan_deg":83.2221,"arg_perigee_deg":78.3983,"mean_anomaly_deg":281.7157,"bstar":3.2647e-5,"rev_number":11029,"period_min":94.105614333632,"perigee_km":474.37349688161,"apogee_km":476.08272614042,"semimajor_km":6853.365111511,"source":"CELESTRAK","updated_at":"2026-05-25T13:38:19.155448Z"}}}